TimeMDT,TemperatureF,Dew PointF,Humidity,Sea Level PressureIn,VisibilityMPH,Wind Direction,Wind SpeedMPH,Gust SpeedMPH,PrecipitationIn,Events,Conditions,WindDirDegrees,DateUTC
12:07 AM,37.4,35.6,93,30.08,8.0,NNE,10.4,-,0.01,Rain,Light Rain,30,2012-10-09 06:07:00
12:18 AM,37.4,35.6,93,30.08,10.0,NNE,9.2,-,0.01,Rain-Snow,Light Rain,20,2012-10-09 06:18:00
12:26 AM,37.4,35.6,93,30.09,10.0,NNE,10.4,-,0.01,Rain-Snow,Light Rain,20,2012-10-09 06:26:00
12:34 AM,37.4,33.8,87,30.09,10.0,NNE,9.2,-,N/A,Rain-Snow,Light Rain,20,2012-10-09 06:34:00
12:53 AM,36.0,34.0,93,30.13,9.0,NNE,4.6,-,0.02,Rain-Snow,Light Rain,30,2012-10-09 06:53:00
1:10 AM,35.6,33.8,93,30.09,8.0,East,5.8,-,0.00,Rain-Snow,Light Rain,100,2012-10-09 07:10:00
1:37 AM,35.6,33.8,93,30.09,9.0,South,5.8,-,0.02,Rain-Snow,Light Rain,180,2012-10-09 07:37:00
1:45 AM,35.6,33.8,93,30.10,10.0,SSW,5.8,-,N/A,Rain-Snow,Light Rain,200,2012-10-09 07:45:00
2:03 AM,35.6,33.8,93,30.09,9.0,SSW,9.2,-,0.00,Fog-Rain,Light Rain,200,2012-10-09 08:03:00
2:14 AM,35.6,33.8,93,30.09,3.0,SSW,9.2,-,0.00,Rain,Light Rain,200,2012-10-09 08:14:00
2:31 AM,35.6,33.8,93,30.09,5.0,SSW,9.2,-,0.00,,Light Drizzle,200,2012-10-09 08:31:00
2:53 AM,35.1,34.0,96,30.14,8.0,SW,8.1,-,0.00,Fog,Light Drizzle,220,2012-10-09 08:53:00
2:58 AM,35.6,33.8,93,30.09,8.0,SSW,8.1,-,0.00,Fog,Light Drizzle,210,2012-10-09 08:58:00
3:13 AM,35.6,35.6,100,30.09,7.0,SSW,8.1,-,0.00,,Light Drizzle,210,2012-10-09 09:13:00
3:33 AM,35.6,35.6,100,30.08,10.0,SW,9.2,-,0.00,Rain,Light Rain,220,2012-10-09 09:33:00
3:53 AM,36.0,34.0,93,30.13,10.0,SW,9.2,-,0.00,Rain,Light Rain,230,2012-10-09 09:53:00
4:53 AM,36.0,34.0,93,30.14,10.0,SW,9.2,-,0.00,Rain,Light Rain,230,2012-10-09 10:53:00
5:38 AM,35.6,35.6,100,30.09,10.0,SW,9.2,-,0.00,,Overcast,220,2012-10-09 11:38:00
5:53 AM,36.0,35.1,97,30.13,10.0,SW,11.5,-,0.00,,Overcast,230,2012-10-09 11:53:00
6:53 AM,37.0,35.1,93,30.14,10.0,SW,10.4,-,N/A,,Mostly Cloudy,230,2012-10-09 12:53:00
7:53 AM,37.0,35.1,93,30.17,10.0,WSW,9.2,-,N/A,,Mostly Cloudy,240,2012-10-09 13:53:00
8:53 AM,37.9,36.0,93,30.19,10.0,SW,8.1,-,N/A,,Overcast,230,2012-10-09 14:53:00
9:53 AM,39.9,37.0,89,30.19,10.0,South,8.1,-,N/A,,Mostly Cloudy,190,2012-10-09 15:53:00
10:53 AM,42.1,36.0,79,30.20,10.0,WSW,4.6,-,N/A,,Mostly Cloudy,240,2012-10-09 16:53:00
11:53 AM,45.0,37.0,74,30.18,10.0,South,4.6,-,N/A,,Mostly Cloudy,190,2012-10-09 17:53:00
12:53 PM,46.9,37.0,68,30.16,10.0,SW,9.2,-,N/A,,Mostly Cloudy,220,2012-10-09 18:53:00
1:53 PM,48.9,36.0,61,30.15,10.0,West,6.9,-,N/A,,Partly Cloudy,260,2012-10-09 19:53:00
2:53 PM,52.0,36.0,54,30.11,10.0,WSW,9.2,17.3,N/A,,Partly Cloudy,250,2012-10-09 20:53:00
3:53 PM,53.1,36.0,52,30.09,10.0,SSW,13.8,-,N/A,,Scattered Clouds,200,2012-10-09 21:53:00
4:53 PM,54.0,36.0,51,30.08,10.0,SSW,8.1,-,N/A,,Scattered Clouds,210,2012-10-09 22:53:00
5:53 PM,54.0,34.0,47,30.08,10.0,SW,13.8,-,N/A,,Scattered Clouds,220,2012-10-09 23:53:00
6:53 PM,53.1,30.0,41,30.10,10.0,North,5.8,-,N/A,,Partly Cloudy,360,2012-10-10 00:53:00
7:53 PM,50.0,33.1,52,30.10,10.0,SW,9.2,-,N/A,,Partly Cloudy,230,2012-10-10 01:53:00
8:53 PM,48.0,30.9,52,30.12,10.0,West,10.4,-,N/A,,Clear,260,2012-10-10 02:53:00
9:53 PM,48.0,28.9,48,30.11,10.0,WSW,13.8,-,N/A,,Clear,250,2012-10-10 03:53:00
10:53 PM,46.0,28.0,50,30.10,10.0,WSW,15.0,-,N/A,,Clear,250,2012-10-10 04:53:00
11:53 PM,45.0,27.0,49,30.09,10.0,WSW,15.0,-,N/A,,Clear,250,2012-10-10 05:53:00